Total_Precipitation_Accumulation
1.76 2.11 2.00 1.71 1.69 1.73 1.80 2.03 2.30 2.07 1.90 1.93 2.06 2.16 2.19 2.19 2.23 2.03 1.84 1.71 1.48 1.34 1.28 1.23 1.23 1.24 1.27 1.31 1.41 1.58 1.74 1.85 2.00 2.21 2.46 2.76 3.08 3.44
1.85 1.93 1.94 1.82 1.82 1.86 1.92 2.04 2.27 2.26 2.05 1.97 2.21 2.29 2.17 2.00 2.19 2.11 1.90 1.78 1.49 1.29 1.16 1.14 1.16 1.19 1.22 1.23 1.21 1.27 1.35 1.44 1.50 1.56 1.61 1.70 1.89 2.27
1.91 1.87 1.88 2.05 2.07 1.92 1.97 2.02 2.20 2.39 2.29 2.15 2.29 2.29 2.16 1.97 1.96 1.95 1.87 1.79 1.57 1.49 1.29 1.20 1.15 1.13 1.13 1.17 1.24 1.27 1.26 1.25 1.22 1.24 1.28 1.34 1.38 1.43
1.96 2.12 2.09 2.13 2.06 1.97 2.06 2.09 2.22 2.47 2.46 2.32 2.28 2.29 2.20 2.12 2.00 1.82 1.61 1.56 1.55 1.67 1.48 1.32 1.24 1.21 1.16 1.12 1.09 1.08 1.05 1.05 1.04 1.00 1.01 1.05 1.11 1.22
1.73 1.97 2.22 2.50 2.34 2.20 2.14 2.11 2.17 2.28 2.47 2.33 2.23 2.40 2.34 2.23 2.06 1.79 1.60 1.54 1.35 1.43 1.46 1.34 1.19 1.09 1.04 1.00 0.98 0.96 0.91 0.90 0.90 0.92 0.95 0.98 1.00 1.03
1.58 1.68 1.79 2.04 2.24 2.39 2.21 2.05 2.10 2.23 2.38 2.38 2.44 2.68 2.74 2.59 2.28 1.96 1.81 1.68 1.51 1.28 1.31 1.25 1.16 1.07 1.03 0.98 0.95 0.93 0.93 0.94 0.96 0.98 1.00 1.03 1.05 1.05
1.64 1.61 1.50 1.63 1.81 1.99 1.96 2.16 2.23 2.21 2.32 2.41 2.62 3.03 3.04 2.79 2.32 2.06 1.96 1.91 1.71 1.45 1.34 1.17 1.05 0.96 0.97 1.02 1.00 0.95 0.90 0.89 0.90 0.92 0.98 1.01 1.02 1.04
1.82 1.75 1.61 1.52 1.55 1.65 1.72 1.87 2.07 2.12 2.19 2.33 2.50 2.78 2.89 2.77 2.50 2.24 2.02 1.89 1.73 1.55 1.44 1.36 1.21 1.12 1.01 0.93 1.03 1.01 0.99 0.95 0.91 0.88 0.87 0.91 0.95 0.96
2.01 2.02 1.70 1.44 1.58 1.55 1.64 1.67 1.64 1.74 1.88 2.04 2.22 2.38 2.69 2.81 2.72 2.34 2.16 1.99 1.72 1.60 1.55 1.45 1.35 1.20 1.04 0.99 1.06 0.94 0.94 0.95 0.90 0.85 0.82 0.78 0.79 0.83
1.73 1.74 1.72 1.58 1.51 1.53 1.53 1.44 1.35 1.36 1.45 1.51 1.61 1.88 2.23 2.65 2.86 2.62 2.46 2.25 1.96 1.71 1.49 1.42 1.37 1.24 1.08 0.99 1.07 0.95 0.85 0.84 0.82 0.75 0.71 0.70 0.70 0.71
1.50 1.52 1.57 1.49 1.51 1.43 1.33 1.31 1.27 1.21 1.22 1.26 1.26 1.42 1.72 2.07 2.47 2.62 2.34 2.01 1.81 1.59 1.48 1.38 1.28 1.32 1.26 1.10 1.06 1.09 0.92 0.81 0.76 0.74 0.72 0.69 0.68 0.72
1.71 1.68 1.64 1.51 1.47 1.33 1.21 1.21 1.14 1.07 1.13 1.11 1.05 1.07 1.19 1.48 1.91 2.08 2.16 1.94 1.70 1.55 1.30 1.26 1.21 1.25 1.27 1.09 0.94 0.92 0.88 0.88 0.85 0.79 0.77 0.77 0.79 0.69
1.86 1.91 1.85 1.72 1.40 1.24 1.10 1.04 1.02 1.10 1.17 1.14 1.07 1.09 1.25 1.42 1.60 1.83 2.02 2.01 1.77 1.48 1.32 1.32 1.21 1.21 1.22 1.11 1.02 0.93 0.85 0.83 0.84 0.87 0.88 0.89 0.89 0.81
1.76 1.90 1.91 1.78 1.52 1.34 1.18 1.07 1.06 1.04 1.05 1.11 1.07 1.04 1.08 1.20 1.39 1.64 1.84 1.87 1.74 1.53 1.44 1.44 1.34 1.24 1.21 1.10 0.97 0.92 0.91 0.87 0.84 0.82 0.81 0.96 0.93 0.91
1.50 1.80 1.91 1.78 1.60 1.36 1.23 1.15 1.02 0.90 0.92 0.92 0.84 0.81 0.85 0.98 1.18 1.50 1.84 2.00 1.92 1.70 1.55 1.42 1.36 1.38 1.39 1.19 0.98 0.89 0.92 0.92 0.85 0.84 0.83 0.84 0.81 0.83
1.26 1.43 1.52 1.49 1.34 1.23 1.13 1.00 0.89 0.86 0.84 0.82 0.81 0.85 0.95 1.03 1.15 1.30 1.65 1.93 1.98 1.76 1.58 1.48 1.41 1.46 1.44 1.31 1.15 0.93 0.87 0.89 0.86 0.85 0.87 0.85 0.85 0.82
1.26 1.28 1.37 1.45 1.44 1.38 1.35 1.24 1.13 1.06 0.97 0.93 0.99 1.01 1.07 1.12 1.16 1.28 1.53 1.75 1.74 1.57 1.48 1.51 1.54 1.53 1.47 1.45 1.31 1.01 0.88 0.85 0.85 0.92 0.98 0.92 0.85 0.86
0.99 1.04 1.23 1.40 1.53 1.55 1.57 1.50 1.38 1.27 1.19 1.18 1.20 1.18 1.18 1.23 1.25 1.29 1.44 1.62 1.63 1.54 1.47 1.42 1.54 1.68 1.63 1.42 1.20 1.05 0.93 0.85 0.86 0.96 1.00 0.96 0.87 0.84
0.83 0.96 1.11 1.26 1.44 1.59 1.61 1.56 1.48 1.46 1.49 1.46 1.44 1.40 1.34 1.34 1.37 1.35 1.38 1.50 1.55 1.51 1.54 1.56 1.59 1.63 1.58 1.27 0.99 0.93 0.99 0.99 1.05 1.07 1.07 1.00 0.89 0.85
0.90 1.07 1.21 1.34 1.48 1.63 1.67 1.63 1.62 1.61 1.61 1.57 1.58 1.57 1.52 1.48 1.46 1.43 1.39 1.40 1.49 1.57 1.59 1.59 1.52 1.44 1.37 1.27 1.15 1.00 0.98 1.09 1.17 1.14 1.11 1.13 1.08 1.06
1.15 1.22 1.27 1.34 1.49 1.64 1.76 1.81 1.83 1.77 1.70 1.69 1.67 1.67 1.68 1.62 1.51 1.49 1.54 1.55 1.51 1.54 1.47 1.34 1.36 1.59 1.69 1.71 1.50 1.15 1.04 1.09 1.20 1.23 1.26 1.35 1.27 1.20
1.16 1.22 1.25 1.27 1.41 1.54 1.66 1.75 1.81 1.78 1.74 1.74 1.72 1.69 1.68 1.68 1.59 1.58 1.67 1.67 1.52 1.41 1.39 1.41 1.60 1.80 1.81 1.73 1.46 1.26 1.20 1.24 1.29 1.31 1.30 1.30 1.26 1.17
1.07 1.09 1.12 1.19 1.31 1.46 1.56 1.66 1.74 1.73 1.66 1.66 1.73 1.74 1.67 1.67 1.64 1.63 1.65 1.71 1.67 1.59 1.60 1.60 1.65 1.68 1.63 1.60 1.52 1.38 1.28 1.32 1.35 1.28 1.13 1.06 1.04 0.99